Weather History for Cloquet, MN

Change the Weather History Date:

Monday, November 26, 2012

  Actual Average Record
Temperature  
Mean Temperature 8 °F -  
Max Temperature 15 °F 30 °F 46 °F (1998)
Min Temperature 1 °F 18 °F -5 °F (1996)
Degree Days  
Heating Degree Days 57    
Moisture  
Dew Point 0 °F    
Average Humidity 68    
Maximum Humidity 85    
Minimum Humidity 49    
Precipitation  
Precipitation 0.00 in - - ()
Sea Level Pressure  
Sea Level Pressure 30.24 in    
Wind  
Wind Speed 9 mph (West)    
Max Wind Speed 14 mph    
Max Gust Speed 17 mph    
Visibility 10 miles    
Events      
Averages and records for this station are not official NWS values.
T = Trace of Precipitation, MM = Missing Value Source: NWS Daily Summary

Daily Weather History Graph

Daily Weather History Graph

Search for Another Location

Airport:

Trip Planner

Search our weather history database for the weather conditions in past years. The results will help you decide how hot, cold, wet, or windy it might be!

Date:

Astronomy

Nov. 26, 2012 Rise Set
Actual Time 7:28 AM CST 4:26 PM CST
Civil Twilight 6:54 AM CST 5:00 PM CST
Nautical Twilight 6:16 AM CST 5:37 PM CST
Astronomical Twilight 5:40 AM CST 6:14 PM CST
Moon 3:22 PM CST (11/26) 5:35 AM CST (11/26)
Length of Visible Light 10h 06m
Length of Day
8h 58m
Waxing Gibbous, 97% of the Moon is Illuminated
Nov 26
Waxing Gibbous
Nov 28
Full
Dec 6
Last Quarter
Dec 13
New
Dec 19
First Quarter

Hourly Weather History & Observations

Time (CST) Temp. Windchill Dew Point Humidity Pressure Visibility Wind Dir Wind Speed Gust Speed Precip Events Conditions
12:16 AM 8.6 °F -4.7 °F 1.4 °F 73% 30.12 in 10.0 mi NW 9.2 mph 17.3 mph N/A   Clear
12:35 AM 8.6 °F -5.5 °F -0.4 °F 67% 30.12 in 10.0 mi WNW 10.4 mph - N/A   Clear
12:56 AM 8.6 °F -5.5 °F -0.4 °F 67% 30.13 in 10.0 mi NW 10.4 mph - N/A   Clear
1:16 AM 8.6 °F -2.6 °F -0.4 °F 67% 30.14 in 10.0 mi WNW 6.9 mph - N/A   Clear
1:35 AM 6.8 °F -6.9 °F -0.4 °F 72% 30.14 in 10.0 mi WNW 9.2 mph - N/A   Clear
1:56 AM 6.8 °F -5.9 °F -0.4 °F 72% 30.16 in 10.0 mi NW 8.1 mph - N/A   Clear
2:16 AM 6.8 °F -6.9 °F -0.4 °F 72% 30.16 in 10.0 mi NW 9.2 mph - N/A   Clear
2:35 AM 6.8 °F -6.9 °F -0.4 °F 72% 30.17 in 10.0 mi NW 9.2 mph - N/A   Clear
2:56 AM 6.8 °F -7.8 °F -0.4 °F 72% 30.17 in 10.0 mi WNW 10.4 mph - N/A   Clear
3:16 AM 6.8 °F -5.9 °F -0.4 °F 72% 30.18 in 10.0 mi WNW 8.1 mph - N/A   Clear
3:35 AM 5.0 °F -8.1 °F -0.4 °F 78% 30.18 in 10.0 mi WNW 8.1 mph - N/A   Clear
3:56 AM 5.0 °F -9.1 °F -0.4 °F 78% 30.18 in 10.0 mi WNW 9.2 mph - N/A   Clear
4:15 AM 5.0 °F -10.0 °F -0.4 °F 78% 30.18 in 10.0 mi WNW 10.4 mph - N/A   Clear
4:36 AM 3.2 °F -10.3 °F -2.2 °F 78% 30.19 in 10.0 mi WNW 8.1 mph - N/A   Clear
4:56 AM 3.2 °F -11.3 °F -2.2 °F 78% 30.20 in 10.0 mi WNW 9.2 mph - N/A   Clear
5:15 AM 3.2 °F -10.3 °F -2.2 °F 78% 30.21 in 10.0 mi WNW 8.1 mph - N/A   Clear
5:36 AM 3.2 °F -10.3 °F -2.2 °F 78% 30.22 in 10.0 mi WNW 8.1 mph - N/A   Clear
5:56 AM 3.2 °F -11.3 °F -2.2 °F 78% 30.22 in 10.0 mi WNW 9.2 mph - N/A   Clear
6:16 AM 1.4 °F -14.5 °F -2.2 °F 85% 30.22 in 10.0 mi WNW 10.4 mph - N/A   Clear
6:36 AM 1.4 °F -15.3 °F -2.2 °F 85% 30.23 in 10.0 mi NW 11.5 mph 16.1 mph N/A   Clear
6:55 AM 1.4 °F -15.3 °F -2.2 °F 85% 30.23 in 10.0 mi WNW 11.5 mph - N/A   Clear
7:16 AM 1.4 °F -16.1 °F -2.2 °F 85% 30.24 in 10.0 mi WNW 12.7 mph - N/A   Clear
7:36 AM 1.4 °F -14.5 °F -4.0 °F 78% 30.24 in 10.0 mi WNW 10.4 mph - N/A   Clear
7:56 AM 1.4 °F -14.5 °F -4.0 °F 78% 30.25 in 10.0 mi WNW 10.4 mph - N/A   Clear
8:16 AM 1.4 °F -12.5 °F -2.2 °F 85% 30.25 in 10.0 mi WNW 8.1 mph - N/A   Clear
8:36 AM 3.2 °F -14.6 °F -2.2 °F 78% 30.26 in 10.0 mi WNW 13.8 mph - N/A   Clear
8:56 AM 3.2 °F -13.1 °F -2.2 °F 78% 30.27 in 10.0 mi WNW 11.5 mph 17.3 mph N/A   Clear
9:16 AM 3.2 °F -13.1 °F -2.2 °F 78% 30.28 in 10.0 mi NW 11.5 mph 16.1 mph N/A   Clear
9:36 AM 5.0 °F -10.0 °F -2.2 °F 72% 30.29 in 10.0 mi NW 10.4 mph - N/A   Clear
9:56 AM 6.8 °F -9.3 °F -2.2 °F 67% 30.30 in 10.0 mi WNW 12.7 mph - N/A   Clear
10:16 AM 6.8 °F -8.6 °F -2.2 °F 67% 30.30 in 10.0 mi WNW 11.5 mph - N/A   Clear
10:36 AM 6.8 °F -9.3 °F -0.4 °F 72% 30.30 in 10.0 mi NW 12.7 mph - N/A   Clear
10:56 AM 8.6 °F -6.3 °F -0.4 °F 67% 30.31 in 10.0 mi WNW 11.5 mph 16.1 mph N/A   Clear
11:16 AM 8.6 °F -3.7 °F -0.4 °F 67% 30.30 in 10.0 mi WNW 8.1 mph - N/A   Clear
11:36 AM 8.6 °F -5.5 °F -0.4 °F 67% 30.30 in 10.0 mi West 10.4 mph - N/A   Clear
11:56 AM 10.4 °F -1.5 °F -0.4 °F 62% 30.30 in 10.0 mi NW 8.1 mph - N/A   Clear
12:16 PM 10.4 °F -0.4 °F -0.4 °F 62% 30.31 in 10.0 mi West 6.9 mph - N/A   Clear
12:36 PM 12.2 °F 0.7 °F 1.4 °F 62% 30.31 in 10.0 mi WNW 8.1 mph - N/A   Clear
12:56 PM 12.2 °F 0.7 °F -0.4 °F 57% 30.30 in 10.0 mi West 8.1 mph - N/A   Clear
1:16 PM 12.2 °F -0.2 °F -0.4 °F 57% 30.30 in 10.0 mi WNW 9.2 mph - N/A   Clear
1:36 PM 14.0 °F 3.9 °F -0.4 °F 53% 30.30 in 10.0 mi West 6.9 mph - N/A   Clear
1:55 PM 15.8 °F 3.4 °F -0.4 °F 49% 30.29 in 10.0 mi West 10.4 mph - N/A   Clear
2:16 PM 15.8 °F 4.2 °F -0.4 °F 49% 30.29 in 10.0 mi West 9.2 mph - N/A   Clear
2:36 PM 15.8 °F 5.1 °F -0.4 °F 49% 30.28 in 10.0 mi West 8.1 mph - N/A   Clear
2:55 PM 15.8 °F 4.2 °F -0.4 °F 49% 30.28 in 10.0 mi West 9.2 mph - N/A   Clear
3:16 PM 15.8 °F 5.1 °F -0.4 °F 49% 30.29 in 10.0 mi WSW 8.1 mph - N/A   Clear
3:36 PM 15.8 °F 8.6 °F -0.4 °F 49% 30.29 in 10.0 mi West 4.6 mph - N/A   Clear
3:55 PM 15.8 °F 6.1 °F -0.4 °F 49% 30.29 in 10.0 mi WSW 6.9 mph - N/A   Clear
4:16 PM 14.0 °F 3.9 °F 1.4 °F 57% 30.29 in 10.0 mi WSW 6.9 mph - N/A   Clear
4:36 PM 12.2 °F 4.3 °F 1.4 °F 62% 30.29 in 10.0 mi WSW 4.6 mph - N/A   Clear
4:55 PM 12.2 °F 4.3 °F -0.4 °F 57% 30.29 in 10.0 mi SW 4.6 mph - N/A   Clear
5:16 PM 12.2 °F 4.3 °F -0.4 °F 57% 30.29 in 10.0 mi SW 4.6 mph - N/A   Clear
5:35 PM 12.2 °F 2.9 °F 1.4 °F 62% 30.29 in 10.0 mi SW 5.8 mph - N/A   Clear
5:56 PM 12.2 °F 4.3 °F 1.4 °F 62% 30.28 in 10.0 mi WSW 4.6 mph - N/A   Clear
6:16 PM 12.2 °F 2.9 °F 1.4 °F 62% 30.28 in 10.0 mi WSW 5.8 mph - N/A   Clear
6:35 PM 12.2 °F 2.9 °F 1.4 °F 62% 30.28 in 10.0 mi WSW 5.8 mph - N/A   Mostly Cloudy
6:56 PM 12.2 °F 4.3 °F 1.4 °F 62% 30.27 in 10.0 mi SW 4.6 mph - N/A   Overcast
7:16 PM 12.2 °F 6.1 °F 3.2 °F 67% 30.27 in 10.0 mi SW 3.5 mph - N/A   Overcast
7:35 PM 12.2 °F 4.3 °F 3.2 °F 67% 30.26 in 10.0 mi SW 4.6 mph - N/A   Overcast
7:56 PM 12.2 °F 6.1 °F 3.2 °F 67% 30.26 in 10.0 mi SW 3.5 mph - N/A   Overcast
8:15 PM 12.2 °F - 3.2 °F 67% 30.26 in 10.0 mi Calm Calm - N/A   Overcast
8:36 PM 12.2 °F 2.9 °F 3.2 °F 67% 30.25 in 10.0 mi SW 5.8 mph - N/A   Overcast
8:56 PM 12.2 °F 1.7 °F 3.2 °F 67% 30.23 in 10.0 mi South 6.9 mph - N/A   Overcast
9:15 PM 12.2 °F 2.9 °F 3.2 °F 67% 30.23 in 10.0 mi SW 5.8 mph - N/A   Overcast
9:36 PM 14.0 °F 5.1 °F 5.0 °F 67% 30.24 in 10.0 mi WSW 5.8 mph - N/A   Overcast
9:56 PM 14.0 °F 5.1 °F 5.0 °F 67% 30.23 in 10.0 mi SW 5.8 mph - N/A   Overcast
10:16 PM 14.0 °F 5.1 °F 6.8 °F 73% 30.22 in 10.0 mi SW 5.8 mph - N/A   Overcast
10:36 PM 14.0 °F 6.5 °F 6.8 °F 73% 30.22 in 10.0 mi SSW 4.6 mph - N/A   Overcast
10:56 PM 15.8 °F 8.6 °F 6.8 °F 68% 30.22 in 10.0 mi SW 4.6 mph - N/A   Overcast
11:16 PM 15.8 °F 7.2 °F 6.8 °F 68% 30.21 in 10.0 mi SW 5.8 mph - N/A   Overcast
11:36 PM 15.8 °F 7.2 °F 6.8 °F 68% 30.21 in 10.0 mi SSW 5.8 mph - N/A   Overcast
11:56 PM 15.8 °F 6.1 °F 6.8 °F 68% 30.21 in 10.0 mi SSW 6.9 mph - N/A   Overcast